Simultaneous Nadir Overpasses (SNOs) Predictions

Prediction of SNOs between AQUA and NPP Satellite Orbit:

Table of predicted SNOs for the next 14.0 days since TLE Epoch: 11/3/2012
Index Date (AQUA) Time (AQUA) Lat,Lon (AQUA) SZA (AQUA ) Date (NPP) Time (NPP) Lat,Lon (NPP) SZA (NPP ) Distance(km) Time Diff (sec)
1 11/05/2012 07:10:14 76.83, -45.92 110.85 11/05/2012 07:09:57 76.83, -46.00 110.89 2.35 17
2 11/05/2012 07:59:23 -77.68, 125.03 70.10 11/05/2012 08:00:23 -77.68, 125.03 70.15 0.06 60
3 11/07/2012 22:37:12 -76.65, -98.27 68.19 11/07/2012 22:36:13 -76.66, -98.19 68.16 2.32 59
4 11/07/2012 23:26:25 77.24, 71.50 111.19 11/07/2012 23:26:44 77.23, 71.43 111.19 1.86 19
5 11/10/2012 14:53:23 -76.89, 18.50 67.70 11/10/2012 14:53:03 -76.89, 18.47 67.67 0.82 20
6 11/10/2012 15:42:30 77.73,-170.52 111.37 11/10/2012 15:43:27 77.74,-170.45 111.31 1.89 57
7 11/13/2012 06:20:20 76.41, -34.87 113.55 11/13/2012 06:19:24 76.40, -34.95 113.62 2.15 56
8 11/13/2012 07:09:28 -77.33, 136.09 67.46 11/13/2012 07:09:49 -77.32, 136.07 67.47 0.77 21
9 11/15/2012 22:36:18 77.06, 83.37 113.53 11/15/2012 22:36:05 77.06, 83.41 113.53 1.02 13




NCC Satellite Simultaneous Nadir Overpasses (SNOs) Prediction Service
